Eastsound, WA
on Friday, December 21, 2012

Friday
Previous Day Next Day
Daily Summary
 ActualAverage (KBLI)Record (KBLI)
Temperature
Mean Temperature °F 38°F  
Max Temperature 44°F 44°F 60°F (1950)
Min Temperature 37°F 32°F 8°F (1990)
Degree Days
Heating Degree Days 24 27  
Month to date heating degree days 557  
Cooling Degree Days 0 0  
Month to date cooling degree days 0  
Year to date cooling degree days 42  
Moisture
Dew Point 34°F   
Average Humidity 79    
Maximum Humidity 93    
Minimum Humidity 70    
Precipitation
Precipitation 0.00 in 0.13 in 1.48 in (1972)
Month to date precipitation 2.99  
Year to date precipitation 34.60  
Wind
Wind Speed 4 mph   
Max Wind Speed 10 mph   
Max Gust Speed 22 mph   
Visibility 10 miles   
Events Rain   

Key: T is trace of precipitation, MM is missing value
Source: NWS Daily Summary
Time(PST)TemperatureDew PointHumidity Pressure Visibility Wind DirectionWind SpeedGust SpeedPrecipitationEvents Conditions
12:15 AM 41.0°F 35.6°F 81% 29.76 in 10.0 miles SSE 5.8 mph - N/A   Clear
12:35 AM 41.0°F 33.8°F 76% 29.77 in 10.0 miles Calm Calm - N/A   Clear
12:55 AM 41.0°F 33.8°F 76% 29.78 in 10.0 miles ESE 3.5 mph - N/A   Clear
1:15 AM 41.0°F 32.0°F 70% 29.78 in 10.0 miles SE 3.5 mph - N/A   Clear
1:35 AM 41.0°F 32.0°F 70% 29.77 in 10.0 miles East 8.1 mph - N/A   Clear
1:55 AM 41.0°F 32.0°F 70% 29.77 in 10.0 miles East 5.8 mph - N/A   Clear
2:15 AM 41.0°F 32.0°F 70% 29.76 in 10.0 miles Calm Calm - N/A   Clear
2:35 AM 41.0°F 32.0°F 70% 29.76 in 10.0 miles Calm Calm - N/A   Clear
2:55 AM 39.2°F 35.6°F 87% 29.76 in 10.0 miles NNE 4.6 mph - N/A   Clear
3:15 AM 39.2°F 35.6°F 87% 29.76 in 10.0 miles Calm Calm - N/A   Clear
3:55 AM 37.4°F 35.6°F 93% 29.75 in 10.0 miles Calm Calm - N/A   Clear
4:15 AM 37.4°F 35.6°F 93% 29.75 in 10.0 miles Calm Calm - N/A   Partly Cloudy
4:35 AM 37.4°F 35.6°F 93% 29.75 in 10.0 miles North - - N/A   Clear
4:55 AM 37.4°F 33.8°F 87% 29.75 in 10.0 miles Calm Calm - N/A   Clear
5:15 AM 37.4°F 33.8°F 87% 29.74 in 10.0 miles Calm Calm - N/A   Clear
5:35 AM 39.2°F 33.8°F 81% 29.72 in 10.0 miles Calm Calm - N/A   Clear
5:55 AM 39.2°F 32.0°F 75% 29.73 in 10.0 miles Calm Calm - N/A   Clear
6:15 AM 37.4°F 32.0°F 81% 29.72 in 10.0 miles Calm Calm - N/A   Clear
6:35 AM 39.2°F 32.0°F 75% 29.71 in 10.0 miles West 3.5 mph - N/A   Clear
6:55 AM 39.2°F 32.0°F 75% 29.71 in 10.0 miles Calm Calm - N/A   Clear
7:15 AM 39.2°F 32.0°F 75% 29.72 in 10.0 miles ENE 4.6 mph - N/A   Clear
7:35 AM 39.2°F 32.0°F 75% 29.72 in 10.0 miles East 4.6 mph - N/A   Clear
7:55 AM 39.2°F 32.0°F 75% 29.72 in 10.0 miles ENE 4.6 mph - N/A   Partly Cloudy
8:15 AM 39.2°F 32.0°F 75% 29.72 in 10.0 miles NE 3.5 mph - N/A   Mostly Cloudy
8:35 AM 39.2°F 32.0°F 75% 29.70 in 10.0 miles NNW 5.8 mph - N/A   Overcast
8:55 AM 39.2°F 32.0°F 75% 29.70 in 10.0 miles Calm Calm - N/A   Overcast
9:15 AM 39.2°F 32.0°F 75% 29.71 in 10.0 miles WSW 3.5 mph - N/A   Overcast
9:35 AM 39.2°F 32.0°F 75% 29.71 in 10.0 miles ENE 3.5 mph - N/A   Scattered Clouds
9:55 AM 39.2°F 32.0°F 75% 29.71 in 9.0 miles ENE 5.8 mph - N/A Rain Light Rain
10:15 AM 39.2°F 32.0°F 75% 29.72 in 9.0 miles ENE 6.9 mph - N/A Rain Light Rain
10:55 AM 39.2°F 32.0°F 75% 29.71 in 10.0 miles East 6.9 mph - N/A   Clear
11:15 AM 39.2°F 32.0°F 75% 29.70 in 10.0 miles ENE 5.8 mph - N/A Rain Light Rain
11:35 AM 39.2°F 32.0°F 75% 29.72 in 10.0 miles Calm Calm - N/A Rain Light Rain
11:55 AM 42.8°F 33.8°F 70% 29.70 in 10.0 miles SSE 9.2 mph 18.4 mph N/A   Overcast
12:15 PM 42.8°F 33.8°F 70% 29.70 in 10.0 miles SSE 9.2 mph 21.9 mph N/A   Overcast
12:35 PM 42.8°F 35.6°F 76% 29.70 in 10.0 miles SE 10.4 mph 21.9 mph N/A   Overcast
12:55 PM 42.8°F 35.6°F 76% 29.70 in 10.0 miles South 8.1 mph 17.3 mph N/A   Overcast
1:15 PM 44.6°F 35.6°F 71% 29.70 in 10.0 miles South 4.6 mph - N/A   Overcast
1:35 PM 44.6°F 37.4°F 76% 29.70 in 10.0 miles South 8.1 mph 18.4 mph N/A   Mostly Cloudy
2:15 PM 44.6°F 37.4°F 76% 29.70 in 10.0 miles South 9.2 mph 18.4 mph N/A   Partly Cloudy
2:35 PM 44.6°F 37.4°F 76% 29.71 in 10.0 miles SSE 6.9 mph - N/A   Clear
2:55 PM 44.6°F 37.4°F 76% 29.71 in 10.0 miles SSE 5.8 mph - N/A   Partly Cloudy
3:15 PM 44.6°F 35.6°F 71% 29.71 in 10.0 miles East 5.8 mph - N/A   Scattered Clouds
3:35 PM 44.6°F 37.4°F 76% 29.71 in 10.0 miles ESE 6.9 mph - N/A   Overcast
3:55 PM 42.8°F 37.4°F 81% 29.71 in 10.0 miles East 6.9 mph - N/A   Overcast
4:15 PM 41.0°F 37.4°F 87% 29.71 in 10.0 miles ENE 5.8 mph - N/A   Overcast
4:55 PM 41.0°F 37.4°F 87% 29.72 in 10.0 miles East 6.9 mph - N/A   Overcast
5:15 PM 41.0°F 35.6°F 81% 29.72 in 10.0 miles NE 9.2 mph - N/A   Overcast
5:35 PM 39.2°F 35.6°F 87% 29.71 in 10.0 miles East 4.6 mph - N/A   Mostly Cloudy
5:55 PM 39.2°F 35.6°F 87% 29.71 in 10.0 miles North - - N/A   Partly Cloudy
6:15 PM 41.0°F 35.6°F 81% 29.71 in 10.0 miles ENE 6.9 mph - N/A   Clear
6:35 PM 39.2°F 35.6°F 87% 29.72 in 10.0 miles ENE 8.1 mph - N/A   Clear
6:55 PM 39.2°F 33.8°F 81% 29.71 in 10.0 miles ENE 9.2 mph - N/A   Clear
7:15 PM 39.2°F 33.8°F 81% 29.71 in 10.0 miles NE 6.9 mph - N/A   Clear
7:35 PM 39.2°F 33.8°F 81% 29.70 in 10.0 miles ENE 6.9 mph - N/A   Clear
7:55 PM 39.2°F 33.8°F 81% 29.70 in 10.0 miles ENE 5.8 mph - N/A   Clear
8:15 PM 39.2°F 33.8°F 81% 29.70 in 10.0 miles ENE 6.9 mph - N/A   Clear
8:35 PM 39.2°F 32.0°F 75% 29.69 in 10.0 miles ENE 6.9 mph - N/A   Clear
8:55 PM 37.4°F 32.0°F 81% 29.69 in 10.0 miles ENE 6.9 mph - N/A   Clear
9:15 PM 37.4°F 32.0°F 81% 29.69 in 10.0 miles ENE 9.2 mph - N/A   Clear
9:35 PM 37.4°F 32.0°F 81% 29.68 in 10.0 miles ENE 9.2 mph 16.1 mph N/A   Clear
9:55 PM 37.4°F 32.0°F 81% 29.69 in 10.0 miles NE 6.9 mph - N/A   Clear
10:15 PM 37.4°F 32.0°F 81% 29.68 in 10.0 miles ENE 5.8 mph - N/A   Clear
10:35 PM 37.4°F 32.0°F 81% 29.69 in 10.0 miles Calm Calm - N/A   Scattered Clouds
10:55 PM 37.4°F 32.0°F 81% 29.69 in 10.0 miles Calm Calm - N/A   Scattered Clouds
11:15 PM 37.4°F 32.0°F 81% 29.68 in 10.0 miles NNE 3.5 mph - N/A Rain Light Rain
11:35 PM 37.4°F 32.0°F 81% 29.68 in 10.0 miles North - - N/A   Partly Cloudy
11:55 PM 37.4°F 32.0°F 81% 29.67 in 9.0 miles Calm Calm - N/A Rain Light Rain
Moon Phase
Dec. 21 Dec. 28 Jan. 04 Jan. 11 Jan. 18
Sunrise:08:02 AM (PST) Moon Rise:12:26 PM (PST)12/21
Sunset:04:18 PM (PST) Moon Set:01:33 AM (PST)12/21

Copyright © 2014 The Weather Underground, Inc.